Find Starlink 34782

NORAD ID: 65358 Int'l Des: 2025-190 Owner: SPXS Country: US Constellation: starlink operational
LEOCIRCULAR

リアルタイム位置

3D地球を読み込み中...

Starlink 34782について

説明を読み込み中...

次回通過

Passes for default location (London). Set your location on the main map for personalized predictions.

高度履歴

Loading altitude history...

軌道要素

1 65358U 25190H 26104.89855743 .00011118 00000-0 38685-3 0 9991
2 65358 53.1593 359.6605 0001705 95.2474 264.8722 15.30206327 35304
Epoch: Apr 14, 2026 • Age: 12 hours

現在のステータス

高度 474.9 km
速度 7.63 km/s
衛星直下点 18.09°N, 178.56°W
打ち上げ日 Aug 28, 2025
運用期間 0.6 years
タイプ internet

技術仕様

分類 Payload
質量 575.00 kg
乾燥質量 530.00 kg
総質量 575.00 kg
長さ 0.30 m
直径 4.10 m
スパン 29.00 m
形状 Box + pan
製造者 SPXS
バスタイプ Starlink V2MO
フェーズステータス In Orbit
所有者/国 SPXS/US

Most Searched